Time,TemperatureF,DewpointF,PressureIn,WindDirection,WindDirectionDegrees,WindSpeedMPH,WindSpeedGustMPH,Humidity,HourlyPrecipIn,Conditions,Clouds,dailyrainin,SoftwareType,DateUTC
2015-03-31 00:02:00,42.6,39.4,29.91,WSW,243,0.0,0.0,88,0.04,,,0.05,meteohub,2015-03-31 04:02:00,
2015-03-31 00:07:00,42.6,39.6,29.90,WSW,243,0.0,0.0,89,0.03,,,0.00,meteohub,2015-03-31 04:07:00,
2015-03-31 00:12:00,42.4,39.4,29.90,WSW,243,0.0,0.0,89,0.03,,,0.00,meteohub,2015-03-31 04:12:00,
2015-03-31 00:17:00,42.4,39.4,29.89,WSW,243,0.0,0.0,89,0.04,,,0.01,meteohub,2015-03-31 04:17:00,
2015-03-31 00:22:00,42.3,39.2,29.88,WSW,243,0.0,0.0,89,0.03,,,0.01,meteohub,2015-03-31 04:22:00,
2015-03-31 00:27:00,42.3,39.2,29.88,WSW,243,0.0,0.0,89,0.03,,,0.01,meteohub,2015-03-31 04:27:00,
2015-03-31 00:32:00,42.1,39.4,29.87,WSW,243,0.0,0.0,90,0.03,,,0.01,meteohub,2015-03-31 04:32:00,
2015-03-31 00:37:00,42.1,39.4,29.87,SSE,154,1.0,0.0,90,0.03,,,0.01,meteohub,2015-03-31 04:37:00,
2015-03-31 00:42:00,42.1,39.4,29.86,SE,132,0.0,2.0,90,0.03,,,0.02,meteohub,2015-03-31 04:42:00,
2015-03-31 00:47:00,42.1,39.4,29.86,SE,132,0.0,2.0,90,0.03,,,0.02,meteohub,2015-03-31 04:47:00,
2015-03-31 00:52:00,42.1,39.4,29.86,SE,132,0.0,2.0,90,0.02,,,0.02,meteohub,2015-03-31 04:52:00,
2015-03-31 00:57:00,41.9,39.4,29.86,SE,132,0.0,1.0,91,0.02,,,0.02,meteohub,2015-03-31 04:57:00,
2015-03-31 01:02:00,41.7,39.0,29.85,SE,128,0.0,1.0,90,0.02,,,0.02,meteohub,2015-03-31 05:02:00,
2015-03-31 01:07:00,41.7,39.2,29.86,SE,127,0.0,1.0,91,0.02,,,0.02,meteohub,2015-03-31 05:07:00,
2015-03-31 01:12:00,41.7,39.2,29.85,SE,126,0.0,1.0,91,0.02,,,0.02,meteohub,2015-03-31 05:12:00,
2015-03-31 01:17:00,41.7,39.2,29.85,SE,133,0.0,2.0,91,0.01,,,0.02,meteohub,2015-03-31 05:17:00,
2015-03-31 01:22:00,41.5,39.2,29.83,ESE,107,1.0,3.0,91,0.01,,,0.02,meteohub,2015-03-31 05:22:00,
2015-03-31 01:27:00,41.5,39.2,29.83,ESE,107,1.0,3.0,91,0.01,,,0.02,meteohub,2015-03-31 05:27:00,
2015-03-31 01:32:00,41.5,39.2,29.83,ESE,108,0.0,3.0,91,0.01,,,0.02,meteohub,2015-03-31 05:32:00,
2015-03-31 01:37:00,41.5,39.2,29.83,ESE,108,1.0,3.0,91,0.01,,,0.02,meteohub,2015-03-31 05:37:00,
2015-03-31 01:42:00,41.5,39.2,29.83,ESE,108,0.0,3.0,91,0.00,,,0.02,meteohub,2015-03-31 05:42:00,
2015-03-31 01:47:00,41.5,39.2,29.83,ESE,108,0.0,2.0,91,0.00,,,0.02,meteohub,2015-03-31 05:47:00,
2015-03-31 01:52:00,41.5,39.2,29.83,ESE,108,0.0,1.0,91,0.00,,,0.02,meteohub,2015-03-31 05:52:00,
2015-03-31 01:57:00,41.4,39.0,29.83,ESE,108,0.0,3.0,91,0.00,,,0.02,meteohub,2015-03-31 05:57:00,
2015-03-31 02:02:00,41.4,39.0,29.82,ESE,108,0.0,3.0,91,0.00,,,0.02,meteohub,2015-03-31 06:02:00,
2015-03-31 02:07:00,41.2,38.8,29.83,ESE,108,0.0,3.0,91,0.00,,,0.02,meteohub,2015-03-31 06:07:00,
2015-03-31 02:12:00,41.2,38.8,29.82,ESE,108,1.0,3.0,91,0.00,,,0.02,meteohub,2015-03-31 06:12:00,
2015-03-31 02:17:00,41.2,39.0,29.81,ESE,109,0.0,6.0,92,0.00,,,0.02,meteohub,2015-03-31 06:17:00,
2015-03-31 02:22:00,41.2,39.0,29.80,ESE,108,2.0,6.0,92,0.00,,,0.02,meteohub,2015-03-31 06:22:00,
2015-03-31 02:27:00,41.2,39.0,29.80,ESE,107,2.0,6.0,92,0.00,,,0.02,meteohub,2015-03-31 06:27:00,
2015-03-31 02:32:00,41.2,39.0,29.78,ESE,102,3.0,5.0,92,0.00,,,0.02,meteohub,2015-03-31 06:32:00,
2015-03-31 02:37:00,41.2,39.0,29.78,SE,134,1.0,5.0,92,0.00,,,0.02,meteohub,2015-03-31 06:37:00,
2015-03-31 02:42:00,41.2,39.0,29.78,ESE,108,2.0,5.0,92,0.00,,,0.02,meteohub,2015-03-31 06:42:00,
2015-03-31 02:47:00,41.2,39.0,29.77,East,100,5.0,5.0,92,0.00,,,0.02,meteohub,2015-03-31 06:47:00,
2015-03-31 02:52:00,41.2,39.0,29.76,East,82,2.0,5.0,92,0.00,,,0.02,meteohub,2015-03-31 06:52:00,
2015-03-31 02:57:00,41.2,39.0,29.75,ESE,122,3.0,8.0,92,0.00,,,0.02,meteohub,2015-03-31 06:57:00,
2015-03-31 03:02:00,41.2,39.0,29.74,SE,129,4.0,8.0,92,0.00,,,0.02,meteohub,2015-03-31 07:02:00,
2015-03-31 03:07:00,41.2,39.0,29.75,SSE,162,1.0,9.0,92,0.00,,,0.02,meteohub,2015-03-31 07:07:00,
2015-03-31 03:12:00,41.2,38.8,29.74,ESE,109,4.0,9.0,91,0.00,,,0.02,meteohub,2015-03-31 07:12:00,
2015-03-31 03:17:00,41.2,39.0,29.74,WSW,257,4.0,9.0,92,0.00,,,0.02,meteohub,2015-03-31 07:17:00,
2015-03-31 03:22:00,41.2,38.8,29.74,SW,224,1.0,14.0,91,0.00,,,0.02,meteohub,2015-03-31 07:22:00,
2015-03-31 03:27:00,41.2,38.8,29.73,SE,146,6.0,14.0,91,0.00,,,0.02,meteohub,2015-03-31 07:27:00,
2015-03-31 03:32:00,41.4,39.0,29.73,SSE,162,2.0,14.0,91,0.00,,,0.02,meteohub,2015-03-31 07:32:00,
2015-03-31 03:37:00,41.5,39.2,29.73,ESE,106,3.0,14.0,91,0.00,,,0.02,meteohub,2015-03-31 07:37:00,
2015-03-31 03:42:00,41.5,38.8,29.75,SW,236,1.0,14.0,90,0.00,,,0.02,meteohub,2015-03-31 07:42:00,
2015-03-31 03:47:00,41.5,38.8,29.73,NE,49,5.0,8.0,90,0.00,,,0.02,meteohub,2015-03-31 07:47:00,
2015-03-31 03:52:00,41.5,38.8,29.74,NE,44,5.0,8.0,90,0.00,,,0.02,meteohub,2015-03-31 07:52:00,
2015-03-31 03:57:00,41.5,38.8,29.75,WNW,300,4.0,9.0,90,0.00,,,0.02,meteohub,2015-03-31 07:57:00,
2015-03-31 04:02:00,41.5,38.8,29.73,ENE,65,7.0,9.0,90,0.00,,,0.02,meteohub,2015-03-31 08:02:00,
2015-03-31 04:07:00,41.5,38.8,29.75,WSW,237,8.0,9.0,90,0.00,,,0.02,meteohub,2015-03-31 08:07:00,
2015-03-31 04:12:00,41.5,38.8,29.75,East,94,1.0,10.0,90,0.00,,,0.02,meteohub,2015-03-31 08:12:00,
2015-03-31 04:17:00,41.4,38.7,29.73,NNE,33,4.0,10.0,90,0.00,,,0.02,meteohub,2015-03-31 08:17:00,
2015-03-31 04:22:00,41.4,39.0,29.74,WSW,237,3.0,10.0,91,0.00,,,0.02,meteohub,2015-03-31 08:22:00,
2015-03-31 04:27:00,41.4,39.0,29.73,SE,141,3.0,6.0,91,0.00,,,0.02,meteohub,2015-03-31 08:27:00,
2015-03-31 04:32:00,41.4,39.0,29.74,WSW,249,4.0,6.0,91,0.00,,,0.02,meteohub,2015-03-31 08:32:00,
2015-03-31 04:37:00,41.2,38.8,29.70,East,90,1.0,8.0,91,0.00,,,0.02,meteohub,2015-03-31 08:37:00,
2015-03-31 04:42:00,41.2,38.8,29.72,NNE,12,2.0,8.0,91,0.02,,,0.04,meteohub,2015-03-31 08:42:00,
2015-03-31 04:47:00,41.4,39.0,29.71,East,95,5.0,8.0,91,0.02,,,0.04,meteohub,2015-03-31 08:47:00,
2015-03-31 04:52:00,41.4,39.0,29.70,ESE,111,2.0,8.0,91,0.02,,,0.04,meteohub,2015-03-31 08:52:00,
2015-03-31 04:57:00,41.4,39.0,29.70,SE,134,2.0,7.0,91,0.03,,,0.05,meteohub,2015-03-31 08:57:00,
2015-03-31 05:02:00,41.2,38.8,29.70,ESE,104,0.0,5.0,91,0.03,,,0.05,meteohub,2015-03-31 09:02:00,
2015-03-31 05:07:00,41.2,38.8,29.70,ESE,104,1.0,4.0,91,0.03,,,0.05,meteohub,2015-03-31 09:07:00,
2015-03-31 05:12:00,41.2,38.8,29.70,ESE,104,0.0,3.0,91,0.03,,,0.05,meteohub,2015-03-31 09:12:00,
2015-03-31 05:17:00,41.2,38.8,29.69,ESE,104,0.0,2.0,91,0.03,,,0.05,meteohub,2015-03-31 09:17:00,
2015-03-31 05:22:00,41.2,38.8,29.69,ESE,104,0.0,2.0,91,0.03,,,0.05,meteohub,2015-03-31 09:22:00,
2015-03-31 05:27:00,41.0,38.7,29.68,SE,126,0.0,2.0,91,0.03,,,0.05,meteohub,2015-03-31 09:27:00,
2015-03-31 05:32:00,40.8,38.5,29.68,ESE,107,4.0,4.0,91,0.04,,,0.06,meteohub,2015-03-31 09:32:00,
2015-03-31 05:37:00,40.8,38.5,29.67,East,88,1.0,4.0,91,0.03,,,0.06,meteohub,2015-03-31 09:37:00,
2015-03-31 05:42:00,40.8,38.7,29.67,SE,140,3.0,5.0,92,0.02,,,0.06,meteohub,2015-03-31 09:42:00,
2015-03-31 05:47:00,40.6,38.5,29.66,ESE,118,4.0,5.0,92,0.02,,,0.06,meteohub,2015-03-31 09:47:00,
2015-03-31 05:52:00,40.6,38.5,29.67,East,96,0.0,5.0,92,0.02,,,0.06,meteohub,2015-03-31 09:52:00,
2015-03-31 05:57:00,40.5,38.3,29.67,ESE,122,2.0,6.0,92,0.01,,,0.06,meteohub,2015-03-31 09:57:00,
2015-03-31 06:02:00,40.5,38.1,29.66,SSE,162,4.0,6.0,91,0.01,,,0.06,meteohub,2015-03-31 10:02:00,
2015-03-31 06:07:00,40.5,38.3,29.66,East,96,1.0,7.0,92,0.01,,,0.06,meteohub,2015-03-31 10:07:00,
2015-03-31 06:12:00,40.5,38.3,29.66,East,96,0.0,7.0,92,0.01,,,0.06,meteohub,2015-03-31 10:12:00,
2015-03-31 06:17:00,40.5,38.3,29.66,East,97,0.0,4.0,92,0.01,,,0.06,meteohub,2015-03-31 10:17:00,
2015-03-31 06:22:00,40.5,38.3,29.66,East,92,1.0,4.0,92,0.01,,,0.06,meteohub,2015-03-31 10:22:00,
2015-03-31 06:27:00,40.3,38.1,29.66,East,83,1.0,3.0,92,0.00,,,0.06,meteohub,2015-03-31 10:27:00,
2015-03-31 06:32:00,40.3,38.1,29.66,East,81,0.0,5.0,92,0.00,,,0.06,meteohub,2015-03-31 10:32:00,
2015-03-31 06:37:00,39.9,37.8,29.65,ESE,113,1.0,5.0,92,0.00,,,0.06,meteohub,2015-03-31 10:37:00,
2015-03-31 06:42:00,39.9,37.8,29.65,ESE,115,1.0,5.0,92,0.00,,,0.06,meteohub,2015-03-31 10:42:00,
2015-03-31 06:47:00,39.7,37.6,29.65,SE,129,0.0,4.0,92,0.00,,,0.06,meteohub,2015-03-31 10:47:00,
2015-03-31 06:52:00,39.7,37.6,29.65,ESE,107,2.0,4.0,92,0.00,,,0.06,meteohub,2015-03-31 10:52:00,
2015-03-31 06:57:00,39.7,37.6,29.65,ESE,107,0.0,4.0,92,0.00,,,0.06,meteohub,2015-03-31 10:57:00,
2015-03-31 07:02:00,39.6,37.4,29.66,ESE,107,0.0,2.0,92,0.00,,,0.06,meteohub,2015-03-31 11:02:00,
2015-03-31 07:07:00,39.4,37.2,29.66,ESE,107,0.0,2.0,92,0.00,,,0.06,meteohub,2015-03-31 11:07:00,
2015-03-31 07:12:00,38.8,36.5,29.66,ESE,107,0.0,0.0,91,0.00,,,0.06,meteohub,2015-03-31 11:12:00,
2015-03-31 07:17:00,38.7,36.3,29.66,ESE,107,0.0,0.0,91,0.00,,,0.06,meteohub,2015-03-31 11:17:00,
2015-03-31 07:22:00,38.1,35.8,29.66,ESE,107,0.0,0.0,91,0.00,,,0.06,meteohub,2015-03-31 11:22:00,
2015-03-31 07:27:00,37.9,35.6,29.66,ESE,107,0.0,0.0,91,0.00,,,0.06,meteohub,2015-03-31 11:27:00,
2015-03-31 07:32:00,37.6,35.2,29.66,ESE,107,0.0,0.0,91,0.00,,,0.06,meteohub,2015-03-31 11:32:00,
2015-03-31 07:37:00,37.4,35.2,29.66,ESE,107,0.0,0.0,92,0.00,,,0.06,meteohub,2015-03-31 11:37:00,
2015-03-31 07:42:00,37.2,35.1,29.66,ESE,107,0.0,0.0,92,0.00,,,0.06,meteohub,2015-03-31 11:42:00,
2015-03-31 07:47:00,36.7,34.3,29.66,ESE,107,0.0,0.0,91,0.00,,,0.06,meteohub,2015-03-31 11:47:00,
2015-03-31 07:52:00,36.3,34.0,29.67,ESE,107,0.0,0.0,91,0.00,,,0.06,meteohub,2015-03-31 11:52:00,
2015-03-31 07:57:00,36.3,34.2,29.67,ESE,107,0.0,0.0,92,0.00,,,0.06,meteohub,2015-03-31 11:57:00,
2015-03-31 08:02:00,36.1,34.0,29.67,ESE,107,0.0,0.0,92,0.00,,,0.06,meteohub,2015-03-31 12:02:00,
2015-03-31 08:07:00,36.0,33.6,29.67,ESE,107,0.0,1.0,91,0.00,,,0.06,meteohub,2015-03-31 12:07:00,
2015-03-31 08:12:00,36.0,33.8,29.67,ESE,107,0.0,1.0,92,0.00,,,0.06,meteohub,2015-03-31 12:12:00,
2015-03-31 08:17:00,36.5,34.7,29.67,ESE,107,0.0,1.0,93,0.00,,,0.06,meteohub,2015-03-31 12:17:00,
2015-03-31 08:22:00,37.0,35.2,29.67,ESE,107,0.0,1.0,93,0.00,,,0.06,meteohub,2015-03-31 12:22:00,
2015-03-31 08:27:00,37.8,36.0,29.67,North,350,0.0,2.0,93,0.00,,,0.06,meteohub,2015-03-31 12:27:00,
2015-03-31 08:32:00,38.3,36.5,29.67,North,9,3.0,4.0,93,0.00,,,0.06,meteohub,2015-03-31 12:32:00,
2015-03-31 08:37:00,38.8,37.2,29.68,ENE,67,2.0,4.0,94,0.00,,,0.06,meteohub,2015-03-31 12:37:00,
2015-03-31 08:42:00,39.0,37.4,29.68,North,355,2.0,3.0,94,0.00,,,0.06,meteohub,2015-03-31 12:42:00,
2015-03-31 08:47:00,39.4,37.8,29.69,NNW,341,4.0,5.0,94,0.00,,,0.06,meteohub,2015-03-31 12:47:00,
2015-03-31 08:52:00,39.0,37.2,29.69,NNW,340,5.0,6.0,93,0.00,,,0.06,meteohub,2015-03-31 12:52:00,
2015-03-31 08:57:00,38.7,36.9,29.69,NNE,15,3.0,7.0,93,0.00,,,0.06,meteohub,2015-03-31 12:57:00,
2015-03-31 09:02:00,38.3,36.5,29.69,North,0,2.0,8.0,93,0.00,,,0.06,meteohub,2015-03-31 13:02:00,
2015-03-31 09:07:00,37.9,36.1,29.69,NNW,343,1.0,8.0,93,0.00,,,0.06,meteohub,2015-03-31 13:07:00,
2015-03-31 09:12:00,37.8,36.0,29.70,NNE,33,3.0,9.0,93,0.00,,,0.06,meteohub,2015-03-31 13:12:00,
2015-03-31 09:17:00,37.6,35.8,29.70,North,355,3.0,9.0,93,0.00,,,0.06,meteohub,2015-03-31 13:17:00,
2015-03-31 09:22:00,37.6,35.8,29.70,NNE,30,5.0,10.0,93,0.00,,,0.06,meteohub,2015-03-31 13:22:00,
2015-03-31 09:27:00,37.2,35.4,29.70,NNE,23,6.0,10.0,93,0.00,,,0.06,meteohub,2015-03-31 13:27:00,
2015-03-31 09:32:00,37.2,35.4,29.71,NW,326,7.0,11.0,93,0.00,,,0.06,meteohub,2015-03-31 13:32:00,
2015-03-31 09:37:00,37.2,35.4,29.72,NNW,348,4.0,11.0,93,0.00,,,0.06,meteohub,2015-03-31 13:37:00,
2015-03-31 09:42:00,37.2,35.4,29.72,NNE,28,8.0,11.0,93,0.00,,,0.06,meteohub,2015-03-31 13:42:00,
2015-03-31 09:47:00,37.2,35.4,29.72,NNE,29,2.0,9.0,93,0.00,,,0.06,meteohub,2015-03-31 13:47:00,
2015-03-31 09:53:00,37.2,35.4,29.72,NNE,15,2.0,8.0,93,0.00,,,0.06,meteohub,2015-03-31 13:53:00,
2015-03-31 09:58:00,36.9,35.1,29.72,North,5,5.0,8.0,93,0.00,,,0.06,meteohub,2015-03-31 13:58:00,
2015-03-31 10:03:00,36.7,34.9,29.73,North,9,3.0,9.0,93,0.00,,,0.06,meteohub,2015-03-31 14:03:00,
2015-03-31 10:08:00,36.7,34.9,29.73,NNW,346,3.0,9.0,93,0.00,,,0.06,meteohub,2015-03-31 14:08:00,
2015-03-31 10:13:00,36.5,34.7,29.73,NNE,22,0.0,9.0,93,0.00,,,0.06,meteohub,2015-03-31 14:13:00,
2015-03-31 10:18:00,36.7,34.9,29.73,NNW,337,3.0,8.0,93,0.00,,,0.06,meteohub,2015-03-31 14:18:00,
2015-03-31 10:23:00,36.7,34.9,29.73,NW,325,5.0,7.0,93,0.00,,,0.06,meteohub,2015-03-31 14:23:00,
2015-03-31 10:28:00,36.5,34.7,29.74,NNW,331,7.0,7.0,93,0.00,,,0.06,meteohub,2015-03-31 14:28:00,
2015-03-31 10:33:00,36.3,34.5,29.74,NNW,348,3.0,8.0,93,0.00,,,0.06,meteohub,2015-03-31 14:33:00,
2015-03-31 10:38:00,36.3,34.5,29.75,NNW,347,2.0,8.0,93,0.00,,,0.06,meteohub,2015-03-31 14:38:00,
2015-03-31 10:43:00,36.3,34.5,29.75,NW,325,4.0,8.0,93,0.00,,,0.06,meteohub,2015-03-31 14:43:00,
2015-03-31 10:48:00,36.3,34.5,29.75,NNW,343,3.0,8.0,93,0.00,,,0.06,meteohub,2015-03-31 14:48:00,
2015-03-31 10:53:00,36.3,34.5,29.76,NNW,344,3.0,8.0,93,0.00,,,0.06,meteohub,2015-03-31 14:53:00,
2015-03-31 10:58:00,36.5,34.7,29.76,NNW,334,5.0,6.0,93,0.00,,,0.06,meteohub,2015-03-31 14:58:00,
2015-03-31 11:03:00,36.5,34.7,29.77,NNW,338,2.0,8.0,93,0.00,,,0.06,meteohub,2015-03-31 15:03:00,
2015-03-31 11:08:00,36.7,35.1,29.77,NNW,341,2.0,8.0,94,0.00,,,0.06,meteohub,2015-03-31 15:08:00,
2015-03-31 11:13:00,36.5,34.9,29.78,NNW,333,1.0,8.0,94,0.00,,,0.06,meteohub,2015-03-31 15:13:00,
2015-03-31 11:18:00,36.3,34.5,29.78,North,349,7.0,12.0,93,0.00,,,0.06,meteohub,2015-03-31 15:18:00,
2015-03-31 11:23:00,36.1,34.5,29.78,NW,323,7.0,12.0,94,0.00,,,0.06,meteohub,2015-03-31 15:23:00,
2015-03-31 11:28:00,36.3,34.7,29.78,NNW,332,4.0,12.0,94,0.00,,,0.06,meteohub,2015-03-31 15:28:00,
2015-03-31 11:33:00,36.3,34.7,29.79,NW,314,6.0,12.0,94,0.00,,,0.06,meteohub,2015-03-31 15:33:00,
2015-03-31 11:38:00,36.3,34.7,29.79,NNW,329,2.0,12.0,94,0.00,,,0.06,meteohub,2015-03-31 15:38:00,
2015-03-31 11:43:00,36.3,34.7,29.80,NNW,345,2.0,10.0,94,0.00,,,0.06,meteohub,2015-03-31 15:43:00,
2015-03-31 11:48:00,36.3,34.7,29.80,NNE,17,1.0,10.0,94,0.00,,,0.06,meteohub,2015-03-31 15:48:00,
2015-03-31 11:53:00,36.3,34.7,29.80,NNW,346,6.0,9.0,94,0.00,,,0.06,meteohub,2015-03-31 15:53:00,
2015-03-31 11:58:00,36.1,34.5,29.81,NNE,15,5.0,9.0,94,0.00,,,0.06,meteohub,2015-03-31 15:58:00,
2015-03-31 12:03:00,36.0,34.3,29.81,North,350,3.0,10.0,94,0.00,,,0.06,meteohub,2015-03-31 16:03:00,
2015-03-31 12:08:00,36.0,34.3,29.81,NE,47,2.0,10.0,94,0.00,,,0.06,meteohub,2015-03-31 16:08:00,
2015-03-31 12:13:00,36.0,34.3,29.82,NE,48,0.0,10.0,94,0.00,,,0.06,meteohub,2015-03-31 16:13:00,
2015-03-31 12:18:00,36.1,34.5,29.83,North,355,0.0,10.0,94,0.00,,,0.06,meteohub,2015-03-31 16:18:00,
2015-03-31 12:23:00,36.1,34.5,29.83,NNW,344,2.0,10.0,94,0.00,,,0.06,meteohub,2015-03-31 16:23:00,
2015-03-31 12:28:00,36.1,34.5,29.83,North,0,2.0,10.0,94,0.00,,,0.06,meteohub,2015-03-31 16:28:00,
2015-03-31 12:33:00,36.1,34.5,29.83,NNW,340,3.0,7.0,94,0.00,,,0.06,meteohub,2015-03-31 16:33:00,
2015-03-31 12:38:00,36.0,34.3,29.84,NNW,337,4.0,9.0,94,0.00,,,0.06,meteohub,2015-03-31 16:38:00,
2015-03-31 12:43:00,36.1,34.5,29.84,NNW,340,3.0,10.0,94,0.00,,,0.06,meteohub,2015-03-31 16:43:00,
2015-03-31 12:48:00,36.0,34.2,29.84,North,5,0.0,10.0,93,0.00,,,0.06,meteohub,2015-03-31 16:48:00,
2015-03-31 12:53:00,36.0,34.3,29.84,NE,34,3.0,10.0,94,0.00,,,0.06,meteohub,2015-03-31 16:53:00,
2015-03-31 12:58:00,36.0,34.3,29.85,NW,326,2.0,9.0,94,0.00,,,0.06,meteohub,2015-03-31 16:58:00,
2015-03-31 13:03:00,36.0,34.2,29.85,NNW,327,2.0,9.0,93,0.00,,,0.06,meteohub,2015-03-31 17:03:00,
2015-03-31 13:08:00,36.0,34.2,29.85,North,355,4.0,8.0,93,0.00,,,0.06,meteohub,2015-03-31 17:08:00,
2015-03-31 13:14:00,36.0,34.2,29.86,NNW,344,5.0,8.0,93,0.00,,,0.06,meteohub,2015-03-31 17:14:00,
2015-03-31 13:19:00,36.1,34.3,29.86,NE,36,2.0,8.0,93,0.00,,,0.06,meteohub,2015-03-31 17:19:00,
2015-03-31 13:24:00,36.1,34.3,29.86,NNE,25,1.0,8.0,93,0.00,,,0.06,meteohub,2015-03-31 17:24:00,
2015-03-31 13:29:00,36.3,34.5,29.86,NNE,33,2.0,6.0,93,0.00,,,0.06,meteohub,2015-03-31 17:29:00,
2015-03-31 13:34:00,36.3,34.5,29.86,NNW,348,0.0,5.0,93,0.00,,,0.06,meteohub,2015-03-31 17:34:00,
2015-03-31 13:39:00,36.9,35.1,29.86,NNW,338,4.0,5.0,93,0.00,,,0.06,meteohub,2015-03-31 17:39:00,
2015-03-31 13:44:00,36.9,35.1,29.87,NNW,339,0.0,5.0,93,0.00,,,0.06,meteohub,2015-03-31 17:44:00,
2015-03-31 13:49:00,36.9,34.7,29.87,NE,46,3.0,6.0,92,0.00,,,0.06,meteohub,2015-03-31 17:49:00,
2015-03-31 13:54:00,37.0,34.9,29.87,NE,38,2.0,6.0,92,0.00,,,0.06,meteohub,2015-03-31 17:54:00,
2015-03-31 13:59:00,37.2,34.9,29.87,WNW,285,3.0,6.0,91,0.00,,,0.06,meteohub,2015-03-31 17:59:00,
2015-03-31 14:04:00,37.2,34.9,29.88,NW,309,4.0,6.0,91,0.00,,,0.06,meteohub,2015-03-31 18:04:00,
2015-03-31 14:09:00,37.4,35.1,29.88,NNW,336,5.0,7.0,91,0.00,,,0.06,meteohub,2015-03-31 18:09:00,
2015-03-31 14:14:00,37.6,35.2,29.88,WNW,303,5.0,7.0,91,0.00,,,0.06,meteohub,2015-03-31 18:14:00,
2015-03-31 14:19:00,37.8,35.4,29.88,WNW,286,4.0,7.0,91,0.00,,,0.06,meteohub,2015-03-31 18:19:00,
2015-03-31 14:24:00,37.9,35.6,29.88,NW,326,6.0,7.0,91,0.00,,,0.06,meteohub,2015-03-31 18:24:00,
2015-03-31 14:29:00,37.9,35.2,29.89,NW,326,3.0,8.0,90,0.00,,,0.06,meteohub,2015-03-31 18:29:00,
2015-03-31 14:34:00,37.9,35.2,29.89,NNW,338,0.0,8.0,90,0.00,,,0.06,meteohub,2015-03-31 18:34:00,
2015-03-31 14:39:00,38.3,35.6,29.89,NNW,348,1.0,8.0,90,0.00,,,0.06,meteohub,2015-03-31 18:39:00,
2015-03-31 14:44:00,38.7,35.8,29.89,NW,320,3.0,7.0,89,0.00,,,0.06,meteohub,2015-03-31 18:44:00,
2015-03-31 14:49:00,38.8,35.6,29.89,NW,308,6.0,6.0,88,0.00,,,0.06,meteohub,2015-03-31 18:49:00,
2015-03-31 14:54:00,38.8,35.2,29.90,NNW,331,3.0,7.0,87,0.00,,,0.06,meteohub,2015-03-31 18:54:00,
2015-03-31 14:59:00,39.0,35.4,29.90,WNW,295,3.0,10.0,87,0.00,,,0.06,meteohub,2015-03-31 18:59:00,
2015-03-31 15:04:00,39.6,36.3,29.90,NNW,332,3.0,10.0,88,0.00,,,0.06,meteohub,2015-03-31 19:04:00,
2015-03-31 15:09:00,39.7,36.0,29.89,NW,304,0.0,10.0,86,0.00,,,0.06,meteohub,2015-03-31 19:09:00,
2015-03-31 15:14:00,39.9,36.1,29.89,NNW,344,0.0,6.0,86,0.00,,,0.06,meteohub,2015-03-31 19:14:00,
2015-03-31 15:19:00,40.3,36.5,29.89,NNW,329,0.0,6.0,86,0.00,,,0.06,meteohub,2015-03-31 19:19:00,
2015-03-31 15:24:00,40.5,36.7,29.89,WNW,301,0.0,5.0,86,0.00,,,0.06,meteohub,2015-03-31 19:24:00,
2015-03-31 15:29:00,40.5,36.3,29.90,NW,313,2.0,4.0,85,0.00,,,0.06,meteohub,2015-03-31 19:29:00,
2015-03-31 15:34:00,40.5,36.3,29.90,NW,325,2.0,4.0,85,0.00,,,0.06,meteohub,2015-03-31 19:34:00,
2015-03-31 15:39:00,40.5,36.3,29.90,WNW,302,3.0,4.0,85,0.00,,,0.06,meteohub,2015-03-31 19:39:00,
2015-03-31 15:44:00,40.3,36.1,29.90,WNW,298,3.0,6.0,85,0.00,,,0.06,meteohub,2015-03-31 19:44:00,
2015-03-31 15:49:00,40.5,36.3,29.90,West,269,2.0,8.0,85,0.00,,,0.06,meteohub,2015-03-31 19:49:00,
2015-03-31 15:54:00,40.6,36.5,29.90,North,5,3.0,8.0,85,0.00,,,0.06,meteohub,2015-03-31 19:54:00,
2015-03-31 15:59:00,40.8,36.1,29.90,NW,325,2.0,8.0,83,0.00,,,0.06,meteohub,2015-03-31 19:59:00,
2015-03-31 16:04:00,40.8,36.1,29.91,NW,314,2.0,7.0,83,0.00,,,0.06,meteohub,2015-03-31 20:04:00,
2015-03-31 16:09:00,40.8,35.8,29.91,NW,315,2.0,7.0,82,0.00,,,0.06,meteohub,2015-03-31 20:09:00,
2015-03-31 16:14:00,41.2,36.5,29.91,WNW,296,3.0,7.0,83,0.00,,,0.06,meteohub,2015-03-31 20:14:00,
2015-03-31 16:19:00,41.4,36.3,29.91,NW,326,4.0,6.0,82,0.00,,,0.06,meteohub,2015-03-31 20:19:00,
2015-03-31 16:24:00,41.5,36.5,29.91,West,275,1.0,6.0,82,0.00,,,0.06,meteohub,2015-03-31 20:24:00,
2015-03-31 16:29:00,41.7,36.3,29.91,NW,319,4.0,5.0,81,0.00,,,0.06,meteohub,2015-03-31 20:29:00,
2015-03-31 16:35:00,42.4,37.0,29.91,WNW,297,4.0,5.0,81,0.00,,,0.06,meteohub,2015-03-31 20:35:00,
2015-03-31 16:40:00,42.8,36.7,29.91,WNW,290,4.0,6.0,79,0.00,,,0.06,meteohub,2015-03-31 20:40:00,
2015-03-31 16:45:00,42.8,36.7,29.91,WNW,298,4.0,7.0,79,0.00,,,0.06,meteohub,2015-03-31 20:45:00,
2015-03-31 16:50:00,42.6,36.5,29.91,WSW,258,2.0,7.0,79,0.00,,,0.06,meteohub,2015-03-31 20:50:00,
2015-03-31 16:55:00,43.0,36.9,29.91,NW,323,7.0,7.0,79,0.00,,,0.06,meteohub,2015-03-31 20:55:00,
2015-03-31 17:00:00,43.0,36.3,29.91,NW,312,4.0,8.0,77,0.00,,,0.06,meteohub,2015-03-31 21:00:00,
2015-03-31 17:05:00,43.0,36.7,29.91,WNW,286,3.0,8.0,78,0.00,,,0.06,meteohub,2015-03-31 21:05:00,
2015-03-31 17:10:00,43.2,36.7,29.91,WNW,286,3.0,8.0,78,0.00,,,0.06,meteohub,2015-03-31 21:10:00,
2015-03-31 17:15:00,43.7,37.0,29.91,WNW,287,4.0,7.0,77,0.00,,,0.06,meteohub,2015-03-31 21:15:00,
2015-03-31 17:20:00,44.1,37.0,29.91,NW,315,1.0,7.0,76,0.00,,,0.06,meteohub,2015-03-31 21:20:00,
2015-03-31 17:25:00,44.8,37.4,29.91,NW,313,5.0,6.0,75,0.00,,,0.06,meteohub,2015-03-31 21:25:00,
2015-03-31 17:30:00,45.1,37.0,29.91,WNW,294,5.0,6.0,73,0.00,,,0.06,meteohub,2015-03-31 21:30:00,
2015-03-31 17:35:00,45.9,36.7,29.91,SW,232,5.0,8.0,70,0.00,,,0.06,meteohub,2015-03-31 21:35:00,
2015-03-31 17:40:00,45.9,36.7,29.91,West,277,5.0,9.0,70,0.00,,,0.06,meteohub,2015-03-31 21:40:00,
2015-03-31 17:45:00,45.1,35.6,29.91,West,270,6.0,9.0,69,0.00,,,0.06,meteohub,2015-03-31 21:45:00,
2015-03-31 17:50:00,45.0,36.1,29.91,NW,304,5.0,9.0,71,0.00,,,0.06,meteohub,2015-03-31 21:50:00,
2015-03-31 17:55:00,45.1,36.0,29.91,WNW,286,1.0,8.0,70,0.00,,,0.06,meteohub,2015-03-31 21:55:00,
2015-03-31 18:00:00,45.9,36.0,29.91,WNW,296,2.0,8.0,68,0.00,,,0.06,meteohub,2015-03-31 22:00:00,
2015-03-31 18:05:00,46.4,36.0,29.91,SSW,206,0.0,7.0,67,0.00,,,0.06,meteohub,2015-03-31 22:05:00,
2015-03-31 18:10:00,46.6,35.8,29.91,WSW,248,4.0,10.0,66,0.00,,,0.06,meteohub,2015-03-31 22:10:00,
2015-03-31 18:15:00,46.4,35.6,29.91,SW,236,3.0,10.0,66,0.00,,,0.06,meteohub,2015-03-31 22:15:00,
2015-03-31 18:32:00,46.2,35.1,29.92,NW,309,7.0,10.0,65,0.00,,,0.06,meteohub,2015-03-31 22:32:00,
2015-03-31 18:37:00,46.0,34.9,29.92,West,277,6.0,10.0,65,0.00,,,0.06,meteohub,2015-03-31 22:37:00,
2015-03-31 18:42:00,46.2,35.1,29.92,WNW,286,3.0,10.0,65,0.00,,,0.06,meteohub,2015-03-31 22:42:00,
2015-03-31 18:47:00,46.2,35.4,29.92,WNW,301,3.0,9.0,66,0.00,,,0.06,meteohub,2015-03-31 22:47:00,
2015-03-31 18:52:00,46.2,35.1,29.92,West,267,4.0,8.0,65,0.00,,,0.06,meteohub,2015-03-31 22:52:00,
2015-03-31 18:57:00,46.0,34.9,29.92,West,275,2.0,6.0,65,0.00,,,0.06,meteohub,2015-03-31 22:57:00,
2015-03-31 19:02:00,46.0,35.2,29.92,NW,307,1.0,6.0,66,0.00,,,0.06,meteohub,2015-03-31 23:02:00,
2015-03-31 19:07:00,46.2,35.1,29.93,WSW,246,1.0,6.0,65,0.00,,,0.06,meteohub,2015-03-31 23:07:00,
2015-03-31 19:12:00,46.2,35.1,29.93,WNW,296,0.0,5.0,65,0.00,,,0.06,meteohub,2015-03-31 23:12:00,
2015-03-31 19:17:00,46.4,35.2,29.93,WNW,296,0.0,5.0,65,0.00,,,0.06,meteohub,2015-03-31 23:17:00,
2015-03-31 19:22:00,46.4,35.2,29.93,WNW,296,2.0,5.0,65,0.00,,,0.06,meteohub,2015-03-31 23:22:00,
2015-03-31 19:27:00,45.9,34.7,29.93,West,259,1.0,5.0,65,0.00,,,0.06,meteohub,2015-03-31 23:27:00,
2015-03-31 19:32:00,45.3,34.7,29.93,WSW,256,1.0,5.0,66,0.00,,,0.06,meteohub,2015-03-31 23:32:00,
2015-03-31 19:37:00,45.0,34.3,29.93,West,278,0.0,5.0,66,0.00,,,0.06,meteohub,2015-03-31 23:37:00,
2015-03-31 19:42:00,44.8,34.5,29.93,West,278,0.0,5.0,67,0.00,,,0.06,meteohub,2015-03-31 23:42:00,
2015-03-31 19:47:00,44.2,34.7,29.93,West,278,0.0,4.0,69,0.00,,,0.06,meteohub,2015-03-31 23:47:00,
2015-03-31 19:52:00,43.5,35.4,29.93,West,278,0.0,4.0,73,0.00,,,0.06,meteohub,2015-03-31 23:52:00,
2015-03-31 19:57:00,42.6,34.5,29.93,West,278,0.0,0.0,73,0.00,,,0.06,meteohub,2015-03-31 23:57:00,
2015-03-31 20:02:00,41.7,34.3,29.94,West,278,0.0,0.0,75,0.00,,,0.06,meteohub,2015-04-01 00:02:00,
2015-03-31 20:07:00,40.8,34.5,29.94,West,278,0.0,0.0,78,0.00,,,0.06,meteohub,2015-04-01 00:07:00,
2015-03-31 20:12:00,39.9,34.0,29.94,West,278,0.0,0.0,79,0.00,,,0.06,meteohub,2015-04-01 00:12:00,
2015-03-31 20:17:00,39.4,33.8,29.94,West,278,0.0,0.0,80,0.00,,,0.06,meteohub,2015-04-01 00:17:00,
2015-03-31 20:22:00,38.7,33.1,29.94,West,278,0.0,0.0,80,0.00,,,0.06,meteohub,2015-04-01 00:22:00,
2015-03-31 20:27:00,38.1,33.1,29.94,West,278,0.0,0.0,82,0.00,,,0.06,meteohub,2015-04-01 00:27:00,
2015-03-31 20:32:00,37.6,32.5,29.94,West,278,0.0,0.0,82,0.00,,,0.06,meteohub,2015-04-01 00:32:00,
2015-03-31 20:37:00,37.0,32.4,29.95,West,278,0.0,0.0,83,0.00,,,0.06,meteohub,2015-04-01 00:37:00,
2015-03-31 20:42:00,36.7,32.0,29.95,West,278,0.0,0.0,83,0.00,,,0.06,meteohub,2015-04-01 00:42:00,
2015-03-31 20:47:00,36.1,31.8,29.95,West,278,0.0,0.0,84,0.00,,,0.06,meteohub,2015-04-01 00:47:00,
2015-03-31 20:52:00,36.0,31.6,29.95,West,278,0.0,0.0,84,0.00,,,0.06,meteohub,2015-04-01 00:52:00,
2015-03-31 20:57:00,35.6,31.5,29.95,West,278,0.0,0.0,85,0.00,,,0.06,meteohub,2015-04-01 00:57:00,
2015-03-31 21:02:00,35.4,31.3,29.96,West,278,0.0,0.0,85,0.00,,,0.06,meteohub,2015-04-01 01:02:00,
2015-03-31 21:07:00,35.2,31.1,29.96,West,278,0.0,0.0,85,0.00,,,0.06,meteohub,2015-04-01 01:07:00,
2015-03-31 21:12:00,35.1,31.3,29.96,West,278,0.0,0.0,86,0.00,,,0.06,meteohub,2015-04-01 01:12:00,
2015-03-31 21:17:00,34.9,31.1,29.96,West,278,0.0,0.0,86,0.00,,,0.06,meteohub,2015-04-01 01:17:00,
2015-03-31 21:22:00,34.9,31.1,29.96,West,278,0.0,0.0,86,0.00,,,0.06,meteohub,2015-04-01 01:22:00,
2015-03-31 21:27:00,34.7,30.9,29.97,West,278,0.0,0.0,86,0.00,,,0.06,meteohub,2015-04-01 01:27:00,
2015-03-31 21:32:00,34.5,31.1,29.97,West,278,0.0,0.0,87,0.00,,,0.06,meteohub,2015-04-01 01:32:00,
2015-03-31 21:37:00,34.5,30.7,29.97,West,278,0.0,0.0,86,0.00,,,0.06,meteohub,2015-04-01 01:37:00,
2015-03-31 21:42:00,34.3,30.9,29.97,West,278,0.0,0.0,87,0.00,,,0.06,meteohub,2015-04-01 01:42:00,
2015-03-31 21:47:00,34.2,30.7,29.98,West,278,0.0,0.0,87,0.00,,,0.06,meteohub,2015-04-01 01:47:00,
2015-03-31 21:52:00,34.0,30.6,29.98,West,278,0.0,0.0,87,0.00,,,0.06,meteohub,2015-04-01 01:52:00,
2015-03-31 21:57:00,33.8,30.4,29.98,West,278,0.0,0.0,87,0.00,,,0.06,meteohub,2015-04-01 01:57:00,
2015-03-31 22:02:00,33.6,30.2,29.98,West,278,0.0,0.0,87,0.00,,,0.06,meteohub,2015-04-01 02:02:00,
2015-03-31 22:07:00,33.3,29.8,29.98,West,278,0.0,3.0,87,0.00,,,0.06,meteohub,2015-04-01 02:07:00,
2015-03-31 22:12:00,33.1,29.8,29.97,West,278,0.0,3.0,88,0.00,,,0.06,meteohub,2015-04-01 02:12:00,
2015-03-31 22:17:00,32.9,29.7,29.98,West,278,0.0,3.0,88,0.00,,,0.06,meteohub,2015-04-01 02:17:00,
2015-03-31 22:22:00,32.7,29.5,29.98,West,278,0.0,1.0,88,0.00,,,0.06,meteohub,2015-04-01 02:22:00,
2015-03-31 22:27:00,32.5,29.3,29.97,West,278,0.0,0.0,88,0.00,,,0.06,meteohub,2015-04-01 02:27:00,
2015-03-31 22:32:00,32.4,29.1,29.97,West,278,0.0,0.0,88,0.00,,,0.06,meteohub,2015-04-01 02:32:00,
2015-03-31 22:37:00,32.4,29.1,29.97,West,278,1.0,0.0,88,0.00,,,0.06,meteohub,2015-04-01 02:37:00,
2015-03-31 22:42:00,32.4,29.5,29.97,West,278,0.0,2.0,89,0.00,,,0.06,meteohub,2015-04-01 02:42:00,
2015-03-31 22:47:00,32.2,29.3,29.97,West,278,0.0,2.0,89,0.00,,,0.06,meteohub,2015-04-01 02:47:00,
2015-03-31 22:52:00,32.2,29.3,29.96,West,278,0.0,2.0,89,0.00,,,0.06,meteohub,2015-04-01 02:52:00,
2015-03-31 22:57:00,32.0,28.9,29.97,West,278,0.0,0.0,88,0.00,,,0.06,meteohub,2015-04-01 02:57:00,
2015-03-31 23:02:00,31.8,28.8,29.97,West,278,0.0,0.0,88,0.00,,,0.06,meteohub,2015-04-01 03:02:00,
2015-03-31 23:07:00,31.6,28.8,29.97,West,278,0.0,0.0,89,0.00,,,0.06,meteohub,2015-04-01 03:07:00,
2015-03-31 23:12:00,31.5,28.6,29.97,West,278,0.0,0.0,89,0.00,,,0.06,meteohub,2015-04-01 03:12:00,